sat.trackr.live / text

‹ back to catalog

BEIDOU-3S M2S (C58)

NORAD 40748 · 2015-037A

PAYLOAD INACTIVE UNKNOWN

§ Identity

Operator
Country
PRC
Launch date
2015-07-25
Launch site
XICLF
Launch vehicle
Mass (kg)
RCS (m²)
16.18

Purposes: nav

External: N2YO · Heavens-Above · Gunter

§ Orbital elements

Epoch: 2026-09-10T03:52:29.261856Z

Period
773.23 min
Inclination
54.7925°
Eccentricity
0.0011587
Mean motion
1.86231911 rev/d
Perigee alt
21,495.6 km
Apogee alt
21,560.3 km
Semi-major
27,906.1 km
B*
0.0000e+0
RAAN
299.1148°
Arg perigee
259.4018°
Mean anomaly
100.5408°
Rev number
7,570

§ Raw data

BEIDOU-3S M2S (C58)1 40748U 15037A   26253.16144979 -.00000041  00000+0  00000+0 0  99922 40748  54.7925 299.1148 0011587 259.4018 100.5408  1.86231911 75701

JSON: /api/v1/satellites/40748 · /tle

For live sub-satellite position, see the globe view (requires WebGL).

§ Visibility from observer

Set your observer location to see the next 7 days of passes ≥ 10°. The values pass through the URL so the page stays shareable.

No JS? Fill the form by hand. The geolocation button needs JavaScript.